Location: Huppendorf
(49.9333°N, 11.1500°E)
Time: 05:59:26
(UTC+00:00)

Lacrosse 5 rocket - Pass Details

Date: 27 February 2020
Orbit: 462 x 635 km, 57.0° (Epoch: 28 March)

Event Time Altitude Azimuth Distance (km) Brightness Sun altitude
Rises 18:40:02 0° 301° (WNW) 2,881 6.2 -17.9°
Reaches altitude 10° 18:42:20 10° 306° (NW) 1,993 5.1 -18.3°
Maximum altitude 18:46:51 58° 25° (NNE) 739 1.8 -19.0°
Enters shadow 18:48:08 42° 81° (E) 909 1.9 -19.2°
